Weather in Sergiev Posad

Russia / Moscow Oblast     56°18′55″N   38°08′09″E
temp.,
°C
wind,
m/s
gust,
m/s
humid.,
%
clouds,
%
prec.,
mm/h
press.,
hPa
HPBL,
m
15 may, sat
sat1500:00+13ese41097100 0.1 1012252
03:00+12ese3899100 0.1 1010206
06:00+15ese3109856 0.3 1008288
09:00+17se4109157 1.1 1008466
12:00+22s57726 1.7 10081121
15:00+22s586226 2.6 10071523
18:00+18s611754 1.8 1008723
21:00+14s311904 2.0 1009331
16 may, sun
sun1600:00+13s3119410 0.0 1009430
03:00+12s3109824 0.0 1010364
06:00+12ssw3109639 0.0 1011380
09:00+17ssw587113 0.0 1011919
12:00+19ssw68609 0.6 10121610
15:00+20ssw486177 1.6 10121373
18:00+18wsw267823 1.0 1012369
21:00+14wsw229226 1.1 101440
17 may, mon
mon1700:00+12sw22941 0.0 101420
03:00+12ssw119479 0.0 101512
06:00+13se229257 0.0 101669
09:00+19se347084 0.0 1016521
12:00+23se345258 0.0 10151181
15:00+25ese464952 0.0 10131520
18:00+24ese48615 0.0 1012685
21:00+18ese311907 0.0 1011243
18 may, tue
tue1800:00+16ese3138954 0.0 1011329
03:00+15ese414926 0.0 1010325
06:00+16se4147713 0.0 1009430
09:00+21se6125860 0.0 1008609
12:00+25se61447100 0.0 10081295
15:00+26sse6134598 0.0 10072028
18:00+23sse61260100 0.0 10071348
21:00+17s248758 0.4 100772
19 may, wed
wed1900:00+15sse31195100 0.6 1007290
03:00+15se299275 0.6 1006327
06:00+15se4129495 0.1 1006513
09:00+18sse5979100 0.1 1005747
12:00+20s5872100 1.8 10041260
15:00+15se41194100 6.4 1004690
18:00+15s51088100 6.0 1003467
21:00+12w61195100 10.3 1006597